Погода в Назарово

Россия / Ярославская область     58°05′14″N   37°51′25″E
темп.,
°C
ветер,
м/с
пор.,
м/с
влажн.,
%
обл.,
%
осадки,
мм/ч
давл.,
гПа
погр.,
м
21 июня, пн
пн2100:00+19юз23770 0.0 101944
03:00+18зюз23870 0.0 102055
06:00+21зюз25835 0.0 1020169
09:00+26зюз24655 0.1 1020639
12:00+30юз344581 0.1 10201786
15:00+30зюз334227 0.1 10191862
18:00+29зюз23508 0.0 10191406
21:00+24ю257995 0.0 101984
22 июня, вт
вт2200:00+21зюз398450 0.1 1020208
03:00+18юз2490100 0.4 102161
06:00+20ююз238994 0.3 102188
09:00+26ююз346029 0.3 1021506
12:00+29ю33452 0.0 10211358
15:00+30ю34391 0.0 10201423
18:00+29ю23505 0.0 1019843
21:00+23ююв22765 0.0 101928
23 июня, ср
ср2300:00+21юз22845 0.0 102013
03:00+19юз237972 0.0 102054
06:00+21юз2578100 0.0 1021143
09:00+27юз3459100 0.0 1021428
12:00+30юз3447100 0.0 10201115
15:00+32юз353824 0.0 10201951
18:00+31ююз244652 0.0 10191072
21:00+24ююз25763 0.0 101985
24 июня, чт
чт2400:00+22юз257112 0.0 102086
03:00+21юз257818 0.0 102091
06:00+22юз26786 0.0 1019157
09:00+28юз465481 0.0 1019587
12:00+32зюз354172 0.0 10191660
15:00+33зюз35365 0.0 10182348
18:00+32ю35461 0.0 10161351
21:00+25ююз2776100 0.0 1016154
25 июня, пт
пт2500:00+20ссв3785100 0.1 1017195
03:00+19з1186100 0.1 101618
06:00+20зсз36838 0.0 1017222
09:00+25з356329 0.0 1016731
12:00+29з34485 0.0 10161346
15:00+30з35465 0.0 10151776
18:00+29з224839 0.0 10131476
21:00+20в119190 3.8 101411